[[{"header":{"parameterUnit":"m.s-1","parameterCategory":1,"la1":30.2991,"la2":30.254,"lo1":-89.0895,"lo2":-89.0444,"dy":0.0017,"dx":0.0017,"nx":28,"ny":28,"refTime":"2023-04-25T21:00:00:Z","depth":0,"parameterNumber":2,"parameterNumberName":"U-component_of_WINDS"},"data":[0,0,0,0,0,0,0,0,0,0,0,0,0,0,0,0,0,0,0,0,0,0,0,0,0,0,0,0,0,0,0,0,0,0,0,0,0,0,0,0,0,0,0,0,0,0,0,0,0,0,0,0,0,0,0,0,0,0,-1.522,-1.522,0,-1.5214,-1.5214,-1.5214,-1.5161,-1.516,-1.5159,-1.5157,-1.5153,-1.5154,-1.5155,0,0,0,0,0,0,0,0,0,0,0,0,0,-1.5186,-1.5187,-1.522,-1.522,-1.5219,-1.5214,-1.5214,-1.5214,-1.5161,-1.516,-1.5158,-1.5157,-1.5153,-1.5154,-1.5155,0,0,0,0,0,0,0,0,0,0,0,0,0,-1.5193,-1.5187,-1.522,-1.5193,-1.519,-1.5214,-1.5214,-1.5214,-1.5162,-1.516,-1.5158,-1.5156,-1.5152,-1.5154,-1.5155,-1.5205,0,0,-1.516,-1.5161,0,0,0,0,0,0,0,0,-1.5192,-1.5194,-1.5197,-1.5194,-1.5192,-1.5186,-1.52,-1.5211,-1.5162,-1.5173,-1.5157,-1.5155,-1.5166,-1.5166,-1.5169,-1.5205,-1.5205,-1.5161,-1.5162,-1.5162,-1.5163,0,0,0,0,0,0,0,-1.5192,-1.5194,-1.5217,-1.5197,-1.5194,-1.5181,-1.518,-1.5202,-1.518,-1.5172,-1.5168,-1.5168,-1.5164,-1.5168,-1.5169,-1.5205,-1.5161,-1.5162,-1.5163,-1.5164,-1.5281,-1.5283,0,0,0,0,0,0,-1.5195,-1.5194,-1.5218,-1.5217,-1.5187,-1.5183,-1.5182,-1.519,-1.518,-1.5176,-1.5169,-1.5165,-1.5166,-1.5167,-1.5169,-1.5226,-1.5162,-1.5164,-1.5165,-1.5278,-1.5281,-1.5283,0,0,0,0,0,0,-1.5195,-1.5198,-1.5218,-1.5204,-1.5206,-1.5186,-1.5196,-1.5191,-1.5195,-1.5178,-1.5174,-1.5177,-1.5165,-1.5166,-1.5196,-1.5225,-1.5165,-1.5166,-1.5276,-1.5279,-1.5282,-1.5341,0,0,0,0,0,0,-1.5194,-1.5198,-1.5216,-1.5205,-1.5207,-1.5245,-1.5197,-1.5192,-1.5198,-1.5192,-1.5185,-1.5182,-1.5163,-1.5194,-1.5198,-1.5226,-1.5167,-1.5273,-1.5277,-1.5281,-1.5337,-1.5346,-1.5354,0,0,0,0,0,-1.5193,-1.5234,-1.5217,-1.5221,-1.523,-1.5247,-1.5248,-1.5226,-1.52,-1.5219,-1.5208,-1.5182,-1.5221,-1.5198,-1.5202,-1.5231,-1.5271,-1.5276,-1.5281,-1.5333,-1.5344,-1.5354,0,0,0,0,0,0,-1.5249,-1.5232,-1.5214,-1.5252,-1.5251,-1.5238,-1.5261,-1.5239,-1.5246,-1.524,-1.5213,-1.5212,-1.5246,-1.5241,-1.5215,-1.5278,-1.5242,-1.5248,-1.528,-1.5291,-1.5299,-1.53,-1.5169,0,0,0,0,0,-1.5266,-1.5281,-1.5265,-1.5301,-1.5301,-1.5281,-1.5288,-1.5271,-1.5269,-1.5269,-1.526,-1.5261,-1.5273,-1.5282,-1.5292,-1.5336,-1.5333,-1.5358,-1.5367,-1.5374,-1.5379,-1.5402,-1.5413,-1.5299,-1.5299,-1.5299,0,0,-1.5301,-1.5293,-1.5305,-1.5312,-1.5309,-1.5326,-1.5281,-1.5301,-1.5313,-1.5272,-1.53,-1.5294,-1.5292,-1.5329,-1.5345,-1.5326,-1.541,-1.538,-1.5386,-1.5387,-1.5408,-1.5419,-1.5428,-1.5302,-1.5301,-1.5301,0,0,-1.5373,-1.5369,-1.5397,-1.5396,-1.5392,-1.5379,-1.5386,-1.5376,-1.537,-1.5398,-1.5367,-1.5381,-1.5403,-1.5403,-1.5406,-1.5478,-1.5454,-1.5482,-1.5528,-1.555,-1.5559,-1.5567,-1.5593,-1.5602,-1.5488,-1.5488,-1.5488,0,-1.5417,-1.544,-1.5415,-1.5437,-1.5441,-1.5404,-1.5433,-1.5433,-1.5433,-1.5437,-1.5416,-1.5443,-1.5439,-1.5475,-1.5493,-1.5496,-1.5504,-1.5483,-1.556,-1.5568,-1.5574,-1.5599,-1.5608,-1.5491,-1.5491,-1.549,-1.549,0,-1.5495,-1.5512,-1.5535,-1.5536,-1.5543,-1.5569,-1.5547,-1.5557,-1.554,-1.5528,-1.5557,-1.5551,-1.5559,-1.5567,-1.555,-1.5601,-1.5589,-1.5565,-1.5527,-1.5589,-1.5611,-1.562,-1.5496,-1.5495,-1.5494,-1.5493,0,0,-1.5602,-1.5588,-1.5598,-1.5597,-1.5591,-1.5604,-1.5628,-1.5635,-1.5644,-1.5646,-1.5666,-1.5685,-1.5662,-1.5665,-1.5648,-1.5668,-1.5725,-1.564,-1.564,-1.5656,-1.5781,-1.58,-1.5811,-1.5709,-1.5711,-1.5712,-1.5781,0,-1.5672,-1.5711,-1.5689,-1.5731,-1.5747,-1.5712,-1.5732,-1.5731,-1.5721,-1.5733,-1.5722,-1.5736,-1.5705,-1.5707,-1.5725,-1.5714,-1.575,-1.5709,-1.5727,-1.5728,-1.5729,-1.5822,-1.5842,-1.5907,-1.579,-1.5791,-1.5792,0,-1.5758,-1.5762,-1.5806,-1.5797,-1.5802,-1.5821,-1.5827,-1.5838,-1.5836,-1.5828,-1.5831,-1.5809,-1.5832,-1.5795,-1.5827,-1.58,-1.5806,-1.5802,-1.5804,-1.5805,-1.5764,-1.5826,-1.5928,-1.5938,-1.5806,-1.5805,-1.5804,0,-1.5832,-1.5849,-1.5877,-1.5878,-1.5868,-1.5882,-1.5879,-1.5874,-1.588,-1.5885,-1.5889,-1.5896,-1.5901,-1.5907,-1.5888,-1.5863,-1.5922,-1.5884,-1.5916,-1.5917,-1.593,-1.5929,-1.6035,-1.5934,-1.5934,-1.5934,-1.5934,0,-1.5911,-1.594,-1.591,-1.5928,-1.5959,-1.5933,-1.5964,-1.5957,-1.5954,-1.5969,-1.594,-1.5955,-1.5929,-1.5942,-1.5927,-1.5955,-1.5957,-1.5951,-1.5947,-1.5954,-1.5955,-1.5958,-1.5953,-1.5937,-1.5936,-1.5936,-1.5935,0,-1.5999,-1.5981,-1.6009,-1.5997,-1.5994,-1.6018,-1.6007,-1.6023,-1.6011,-1.6031,-1.6035,-1.6016,-1.603,-1.6011,-1.6023,-1.6013,-1.6052,-1.6041,-1.6053,-1.6049,-1.6083,-1.608,-1.6193,-1.6207,-1.6098,-1.6099,-1.61,0,-1.6051,-1.6072,-1.6062,-1.607,-1.6068,-1.6081,-1.6087,-1.6063,-1.607,-1.6069,-1.6085,-1.6096,-1.6104,-1.6127,-1.6115,-1.6125,-1.6113,-1.6153,-1.6115,-1.6121,-1.6114,-1.6113,-1.6115,-1.616,-1.6162,-1.6163,-1.6164,0,-1.6146,-1.6135,-1.6144,-1.6151,-1.6158,-1.6162,-1.6164,-1.6172,-1.6147,-1.6157,-1.617,-1.6176,-1.6188,-1.62,-1.6205,-1.6202,-1.6179,-1.6176,-1.6183,-1.6191,-1.6197,-1.6194,-1.6074,-1.6173,-1.6172,-1.6171,-1.6171,-1.6171,-1.6217,-1.6234,-1.6229,-1.624,-1.6239,-1.6241,-1.6255,-1.6245,-1.6255,-1.6263,-1.6248,-1.6265,-1.6262,-1.6267,-1.6267,-1.628,-1.6263,-1.6274,-1.6277,-1.6281,-1.6286,-1.6195,-1.6281,-1.6281,-1.628,-1.628,-1.628,0,-1.631,-1.6305,-1.6315,-1.6318,-1.6327,-1.6304,-1.6304,-1.6314,-1.6329,-1.6328,-1.6336,-1.6351,-1.6362,-1.6351,-1.636,-1.6373,-1.6362,-1.6376,-1.6375,-1.6374,-1.63,-1.6292,-1.6384,-1.6384,-1.6384,-1.6384,-1.6384,-1.6384,-1.6359,-1.6386,-1.6375,-1.6401,-1.6396,-1.6412,-1.6414,-1.6416,-1.6415,-1.6434,-1.6442,-1.6435,-1.643,-1.6438,-1.6447,-1.6443,-1.6448,-1.6466,-1.6458,-1.639,-1.6379,-1.637,-1.6362,-1.6467,-1.6467,-1.6531,-1.6531,-1.6532]},{"header":{"parameterUnit":"m.s-1","parameterCategory":1,"la1":30.2991,"la2":30.254,"lo1":-89.0895,"lo2":-89.0444,"dy":0.0017,"dx":0.0017,"nx":28,"ny":28,"refTime":"2023-04-25T21:00:00:Z","depth":0,"parameterNumber":3,"parameterNumberName":"V-component_of_WINDS"},"data":[0,0,0,0,0,0,0,0,0,0,0,0,0,0,0,0,0,0,0,0,0,0,0,0,0,0,0,0,0,0,0,0,0,0,0,0,0,0,0,0,0,0,0,0,0,0,0,0,0,0,0,0,0,0,0,0,0,0,0.0346,0.0345,0,0.0269,0.0268,0.0267,0.022,0.0219,0.0219,0.0219,0.0138,0.0136,0.0134,0,0,0,0,0,0,0,0,0,0,0,0,0,0.045,0.0448,0.0346,0.0345,0.0344,0.0269,0.0268,0.0267,0.022,0.0219,0.0219,0.0219,0.0139,0.0136,0.0134,0,0,0,0,0,0,0,0,0,0,0,0,0,0.0392,0.0448,0.0346,0.0311,0.0307,0.0269,0.0268,0.0267,0.022,0.0219,0.0219,0.0219,0.0139,0.0137,0.0134,0.0123,0,0,0.0125,0.0124,0,0,0,0,0,0,0,0,0.0395,0.0388,0.0317,0.0314,0.0309,0.0253,0.0275,0.0218,0.022,0.0253,0.0219,0.0218,0.0177,0.0171,0.0157,0.0119,0.0116,0.0125,0.0123,0.0122,0.0121,0,0,0,0,0,0,0,0.0399,0.0391,0.0315,0.0316,0.0311,0.0299,0.029,0.0264,0.0218,0.025,0.0246,0.0238,0.0174,0.016,0.0155,0.0115,0.0125,0.0122,0.012,0.0119,0.0065,0.0065,0,0,0,0,0,0,0.0409,0.0395,0.0318,0.0313,0.0352,0.0297,0.0288,0.0272,0.0218,0.0209,0.0239,0.0236,0.0165,0.0158,0.0152,0.0136,0.0122,0.0119,0.0117,0.0064,0.0065,0.0065,0,0,0,0,0,0,0.0412,0.0403,0.0321,0.0353,0.0342,0.0296,0.0278,0.027,0.0256,0.0209,0.02,0.0232,0.0164,0.0156,0.0131,0.0132,0.0118,0.0115,0.0064,0.0064,0.0065,0.0105,0,0,0,0,0,0,0.0415,0.0404,0.04,0.0353,0.034,0.0302,0.0278,0.0269,0.0251,0.0248,0.0201,0.0193,0.0163,0.0135,0.0128,0.0128,0.0113,0.0064,0.0064,0.0065,0.0103,0.0106,0.0109,0,0,0,0,0,0.0419,0.0414,0.04,0.0391,0.0334,0.0302,0.0295,0.0261,0.0252,0.0247,0.0217,0.0194,0.0134,0.0133,0.0124,0.0124,0.0063,0.0064,0.0065,0.0102,0.0106,0.0109,0,0,0,0,0,0,0.0461,0.0407,0.0391,0.0371,0.0342,0.0294,0.0287,0.0267,0.0239,0.0236,0.0195,0.0185,0.0165,0.0141,0.0142,0.0111,0.0096,0.0095,0.0127,0.013,0.0134,0.014,0.011,0,0,0,0,0,0.0468,0.0447,0.0401,0.0387,0.0374,0.0333,0.0318,0.0295,0.0263,0.025,0.0218,0.0187,0.016,0.0144,0.0117,0.0099,0.0088,0.0095,0.0098,0.0101,0.01,0.0089,0.0091,0.0067,0.0067,0.0067,0,0,0.0482,0.045,0.0439,0.0395,0.037,0.0349,0.0323,0.0302,0.0286,0.0246,0.0221,0.0197,0.0159,0.0138,0.0127,0.0118,0.0104,0.0101,0.0104,0.0102,0.009,0.0092,0.0094,0.0068,0.0068,0.0067,0,0,0.0497,0.0471,0.0457,0.0433,0.0395,0.0368,0.0365,0.032,0.0303,0.0277,0.0248,0.0227,0.0183,0.0158,0.0139,0.0145,0.0123,0.0137,0.0154,0.0144,0.0145,0.0147,0.0149,0.0151,0.0137,0.0137,0.0137,0,0.052,0.0488,0.0453,0.0433,0.0415,0.0379,0.0365,0.0342,0.0297,0.0285,0.0276,0.022,0.0192,0.0164,0.0166,0.0152,0.0146,0.0142,0.0148,0.0149,0.015,0.0152,0.0153,0.0139,0.0139,0.0139,0.0138,0,0.0517,0.0495,0.0488,0.0447,0.0427,0.0411,0.0373,0.0357,0.0336,0.031,0.0284,0.0249,0.0215,0.0207,0.0185,0.0176,0.0172,0.0156,0.014,0.0155,0.0156,0.0156,0.0142,0.0141,0.0141,0.014,0,0,0.0557,0.0497,0.0495,0.0476,0.0432,0.0414,0.0395,0.0362,0.035,0.032,0.0303,0.0267,0.0252,0.0231,0.0206,0.0197,0.0204,0.0182,0.018,0.0188,0.0192,0.0205,0.0206,0.0189,0.0189,0.0189,0.0195,0,0.0566,0.0532,0.05,0.0477,0.0456,0.0422,0.0406,0.0376,0.0352,0.033,0.0302,0.0277,0.0259,0.0246,0.0236,0.0206,0.0205,0.0205,0.0173,0.0172,0.0184,0.0207,0.022,0.0227,0.0196,0.0196,0.0196,0,0.0572,0.0545,0.052,0.0478,0.0468,0.0454,0.0422,0.0402,0.0368,0.035,0.0327,0.0301,0.0279,0.0266,0.0235,0.0236,0.0221,0.0204,0.0203,0.0199,0.0185,0.0204,0.0229,0.023,0.0196,0.0196,0.0196,0,0.0604,0.0561,0.0541,0.0526,0.0476,0.0467,0.0446,0.0411,0.0394,0.0365,0.0353,0.0322,0.0305,0.0282,0.0248,0.0241,0.0221,0.0204,0.0206,0.0207,0.0203,0.0204,0.0227,0.0193,0.0193,0.0193,0.0193,0,0.0618,0.0604,0.0555,0.0543,0.0526,0.0489,0.0474,0.0449,0.0419,0.0401,0.0369,0.0352,0.0308,0.0287,0.026,0.0239,0.0231,0.0216,0.0209,0.0219,0.0221,0.0209,0.0208,0.0193,0.0193,0.0193,0.0193,0,0.0652,0.0618,0.0594,0.0549,0.0537,0.0527,0.0488,0.0475,0.0448,0.0426,0.0418,0.0376,0.0349,0.0313,0.0274,0.0256,0.0238,0.0227,0.025,0.0246,0.0249,0.025,0.0265,0.0266,0.0232,0.0232,0.0233,0,0.0663,0.0652,0.0606,0.0592,0.0572,0.055,0.0532,0.0495,0.0478,0.0438,0.0429,0.04,0.0374,0.0332,0.0297,0.0267,0.0255,0.0263,0.0251,0.0261,0.0256,0.0257,0.0256,0.0266,0.0267,0.0267,0.0268,0,0.0687,0.0671,0.0647,0.0617,0.0597,0.0571,0.0544,0.0534,0.0492,0.0474,0.0446,0.0426,0.0387,0.0358,0.0323,0.03,0.0277,0.0272,0.0271,0.0281,0.0295,0.0288,0.0259,0.0272,0.0271,0.0271,0.0271,0.0271,0.0709,0.0698,0.0664,0.0639,0.0615,0.059,0.0576,0.0547,0.0524,0.049,0.0469,0.0442,0.0408,0.0359,0.0337,0.0315,0.0306,0.0304,0.0304,0.0304,0.0308,0.0298,0.0309,0.0309,0.0308,0.0308,0.0308,0,0.0732,0.0709,0.0685,0.0649,0.0629,0.0609,0.0578,0.0563,0.054,0.051,0.0486,0.0454,0.0425,0.0389,0.0358,0.0347,0.0336,0.034,0.0341,0.0336,0.0317,0.0322,0.035,0.035,0.035,0.035,0.035,0.035,0.0741,0.0721,0.0701,0.0669,0.0645,0.0619,0.0603,0.058,0.0557,0.0523,0.0499,0.0476,0.0444,0.041,0.0383,0.0373,0.0363,0.0371,0.0358,0.0341,0.0337,0.0334,0.0338,0.0369,0.0369,0.0379,0.0379,0.0379]}]]